| time (UTC) | temp F | wind direction | speed MPH | gust MPH | rain 1hr in | rain 24hr in | rain mn in | humidity % | barometer mb |
| 20260903205403 | 85 | 172 | 3.0 | 8.0 | 0.00 | 0.00 | 0.00 | 16 | 1027.4 |
| 20260903204503 | 84 | 174 | 2.0 | 8.0 | 0.00 | 0.00 | 0.00 | 16 | 1027.4 |
| 20260903203603 | 84 | 173 | 4.0 | 10.0 | 0.00 | 0.00 | 0.00 | 17 | 1027.4 |
| 20260903202703 | 83 | 137 | 5.0 | 14.0 | 0.00 | 0.00 | 0.00 | 21 | 1027.4 |
| 20260903201824 | 82 | 130 | 6.0 | 19.0 | 0.00 | 0.00 | 0.00 | 16 | 1027.4 |
| 20260903200903 | 83 | 131 | 3.0 | 9.0 | 0.00 | 0.00 | 0.00 | 16 | 1027.4 |
| 20260903200003 | 82 | 138 | 5.0 | 11.0 | 0.00 | 0.00 | 0.00 | 17 | 1027.4 |
| 20260903195403 | 82 | 137 | 4.0 | 15.0 | 0.00 | 0.00 | 0.00 | 17 | 1027.4 |
| 20260903194503 | 82 | 143 | 4.0 | 16.0 | 0.00 | 0.00 | 0.00 | 18 | 1027.4 |
| 20260903193603 | 81 | 128 | 7.0 | 18.0 | 0.00 | 0.00 | 0.00 | 18 | 1027.4 |
| 20260903192724 | 81 | 130 | 5.0 | 18.0 | 0.00 | 0.00 | 0.00 | 16 | 1027.4 |
| 20260903191803 | 81 | 136 | 5.0 | 16.0 | 0.00 | 0.00 | 0.00 | 18 | 1027.4 |
| 20260903190903 | 81 | 137 | 4.0 | 15.0 | 0.00 | 0.00 | 0.00 | 17 | 1027.4 |
| 20260903190003 | 81 | 130 | 5.0 | 13.0 | 0.00 | 0.00 | 0.00 | 21 | 1027.4 |
| 20260903185403 | 80 | 124 | 6.0 | 19.0 | 0.00 | 0.00 | 0.00 | 18 | 1027.4 |
| 20260903184503 | 80 | 127 | 6.0 | 13.0 | 0.00 | 0.00 | 0.00 | 20 | 1027.4 |
| 20260903183603 | 80 | 128 | 7.0 | 19.0 | 0.00 | 0.00 | 0.00 | 19 | 1027.4 |
| 20260903182703 | 81 | 135 | 4.0 | 17.0 | 0.00 | 0.00 | 0.00 | 17 | 1027.4 |
| 20260903181803 | 81 | 175 | 2.0 | 8.0 | 0.00 | 0.00 | 0.00 | 21 | 1027.4 |
| 20260903180903 | 80 | 152 | 2.0 | 9.0 | 0.00 | 0.00 | 0.00 | 21 | 1027.4 |
| 20260903180003 | 79 | 153 | 2.0 | 8.0 | 0.00 | 0.00 | 0.00 | 22 | 1027.4 |
| 20260903175424 | 79 | 126 | 4.0 | 17.0 | 0.00 | 0.00 | 0.00 | 21 | 1027.4 |
| 20260903174503 | 78 | 128 | 6.0 | 15.0 | 0.00 | 0.00 | 0.00 | 20 | 1027.4 |
| 20260903173603 | 78 | 127 | 6.0 | 15.0 | 0.00 | 0.00 | 0.00 | 18 | 1027.4 |
| 20260903172703 | 78 | 127 | 6.0 | 14.0 | 0.00 | 0.00 | 0.00 | 19 | 1027.4 |
| 20260903171803 | 78 | 154 | 3.0 | 10.0 | 0.00 | 0.00 | 0.00 | 20 | 1027.4 |
| 20260903170924 | 78 | 143 | 2.0 | 15.0 | 0.00 | 0.00 | 0.00 | 21 | 1027.4 |
| 20260903170003 | 78 | 142 | 2.0 | 11.0 | 0.00 | 0.00 | 0.00 | 20 | 1027.4 |
| 20260903165403 | 78 | 143 | 2.0 | 8.0 | 0.00 | 0.00 | 0.00 | 22 | 1027.4 |
| 20260903164524 | 77 | 155 | 2.0 | 12.0 | 0.00 | 0.00 | 0.00 | 22 | 1027.4 |
| 20260903163603 | 76 | 140 | 4.0 | 12.0 | 0.00 | 0.00 | 0.00 | 21 | 1027.4 |
| 20260903162703 | 76 | 150 | 2.0 | 12.0 | 0.00 | 0.00 | 0.00 | 23 | 1027.4 |
| 20260903161803 | 76 | 146 | 3.0 | 12.0 | 0.00 | 0.00 | 0.00 | 21 | 1027.4 |
| 20260903160903 | 75 | 140 | 2.0 | 10.0 | 0.00 | 0.00 | 0.00 | 24 | 1027.4 |
| 20260903160024 | 74 | 139 | 2.0 | 10.0 | 0.00 | 0.00 | 0.00 | 23 | 1027.4 |
| 20260903155403 | 74 | 155 | 2.0 | 8.0 | 0.00 | 0.00 | 0.00 | 26 | 1027.4 |
| 20260903154503 | 74 | 151 | 1.0 | 7.0 | 0.00 | 0.00 | 0.00 | 26 | 1027.4 |
| 20260903153603 | 74 | 152 | 2.0 | 8.0 | 0.00 | 0.00 | 0.00 | 25 | 1027.4 |
| 20260903152724 | 74 | 150 | 2.0 | 7.0 | 0.00 | 0.00 | 0.00 | 26 | 1027.4 |
| 20260903151803 | 74 | 171 | 2.0 | 6.0 | 0.00 | 0.00 | 0.00 | 26 | 1027.4 |
| 20260903150903 | 73 | 181 | 2.0 | 7.0 | 0.00 | 0.00 | 0.00 | 24 | 1027.4 |
| 20260903150003 | 72 | 185 | 1.0 | 4.0 | 0.00 | 0.00 | 0.00 | 25 | 1027.4 |
| 20260903145403 | 72 | 181 | 1.0 | 6.0 | 0.00 | 0.00 | 0.00 | 25 | 1027.4 |
| 20260903144503 | 71 | 167 | 0.0 | 4.0 | 0.00 | 0.00 | 0.00 | 26 | 1027.4 |
| 20260903143603 | 69 | 169 | 1.0 | 4.0 | 0.00 | 0.00 | 0.00 | 27 | 1027.4 |
| 20260903142703 | 68 | 155 | 2.0 | 6.0 | 0.00 | 0.00 | 0.00 | 28 | 1027.4 |
| 20260903141803 | 66 | 133 | 1.0 | 7.0 | 0.00 | 0.00 | 0.00 | 28 | 1027.4 |
| 20260903140903 | 65 | 137 | 1.0 | 5.0 | 0.00 | 0.00 | 0.00 | 29 | 1027.4 |
| 20260903140003 | 63 | 145 | 1.0 | 3.0 | 0.00 | 0.00 | 0.00 | 30 | 1027.4 |
| 20260903135403 | 62 | 148 | 1.0 | 2.0 | 0.00 | 0.00 | 0.00 | 31 | 1027.4 |
| 20260903134503 | 60 | 141 | 0.0 | 4.0 | 0.00 | 0.00 | 0.00 | 32 | 1027.4 |
| 20260903133624 | 58 | 163 | 0.0 | 3.0 | 0.00 | 0.00 | 0.00 | 32 | 1027.4 |
| 20260903132703 | 57 | 201 | 0.0 | 3.0 | 0.00 | 0.00 | 0.00 | 33 | 1027.4 |
| 20260903131824 | 56 | 213 | 0.0 | 2.0 | 0.00 | 0.00 | 0.00 | 35 | 1027.4 |
| 20260903130903 | 56 | 213 | 1.0 | 4.0 | 0.00 | 0.00 | 0.00 | 37 | 1027.4 |
| 20260903130003 | 55 | 213 | 0.0 | 4.0 | 0.00 | 0.00 | 0.00 | 41 | 1027.4 |
| 20260903125424 | 55 | 213 | 0.0 | 4.0 | 0.00 | 0.00 | 0.00 | 41 | 1027.4 |
| 20260903124503 | 55 | 213 | 0.0 | 1.0 | 0.00 | 0.00 | 0.00 | 46 | 1027.4 |
| 20260903123624 | 56 | 213 | 0.0 | 1.0 | 0.00 | 0.00 | 0.00 | 44 | 1027.4 |
| 20260903122724 | 56 | 0 | 0.0 | 0.0 | 0.00 | 0.00 | 0.00 | 44 | 1027.4 |
| 20260903121803 | 57 | 0 | 0.0 | 0.0 | 0.00 | 0.00 | 0.00 | 42 | 1027.4 |
| 20260903120903 | 57 | 213 | 0.0 | 1.0 | 0.00 | 0.00 | 0.00 | 40 | 1027.4 |
| 20260903120003 | 58 | 0 | 0.0 | 0.0 | 0.00 | 0.00 | 0.00 | 40 | 1027.4 |
| 20260903115403 | 58 | 0 | 0.0 | 0.0 | 0.00 | 0.00 | 0.00 | 41 | 1027.4 |
| 20260903114503 | 59 | 213 | 0.0 | 1.0 | 0.00 | 0.00 | 0.00 | 38 | 1027.4 |
| 20260903113603 | 60 | 0 | 0.0 | 0.0 | 0.00 | 0.00 | 0.00 | 35 | 1027.4 |
| 20260903112703 | 61 | 0 | 0.0 | 0.0 | 0.00 | 0.00 | 0.00 | 31 | 1027.4 |
| 20260903111803 | 61 | 213 | 0.0 | 1.0 | 0.00 | 0.00 | 0.00 | 26 | 1027.4 |
| 20260903110903 | 61 | 213 | 0.0 | 1.0 | 0.00 | 0.00 | 0.00 | 26 | 1027.4 |
| 20260903110003 | 62 | 213 | 0.0 | 2.0 | 0.00 | 0.00 | 0.00 | 26 | 1027.4 |
| 20260903105403 | 62 | 213 | 1.0 | 4.0 | 0.00 | 0.00 | 0.00 | 27 | 1027.4 |
| 20260903104503 | 62 | 212 | 2.0 | 7.0 | 0.00 | 0.00 | 0.00 | 27 | 1027.4 |
| 20260903103603 | 62 | 214 | 2.0 | 7.0 | 0.00 | 0.00 | 0.00 | 26 | 1027.4 |
| 20260903102703 | 62 | 214 | 2.0 | 4.0 | 0.00 | 0.00 | 0.00 | 26 | 1027.4 |
| 20260903101803 | 62 | 214 | 1.0 | 6.0 | 0.00 | 0.00 | 0.00 | 27 | 1027.4 |
| 20260903100903 | 62 | 216 | 2.0 | 6.0 | 0.00 | 0.00 | 0.00 | 30 | 1027.4 |
| 20260903100024 | 62 | 216 | 2.0 | 5.0 | 0.00 | 0.00 | 0.00 | 30 | 1027.4 |
| 20260903095403 | 62 | 209 | 3.0 | 7.0 | 0.00 | 0.00 | 0.00 | 29 | 1027.4 |
| 20260903094503 | 62 | 175 | 1.0 | 6.0 | 0.00 | 0.00 | 0.00 | 29 | 1027.4 |
| 20260903093603 | 62 | 155 | 1.0 | 6.0 | 0.00 | 0.00 | 0.00 | 31 | 1027.4 |
| 20260903092703 | 61 | 171 | 0.0 | 3.0 | 0.00 | 0.00 | 0.00 | 35 | 1027.4 |
| 20260903091803 | 61 | 211 | 1.0 | 4.0 | 0.00 | 0.00 | 0.00 | 37 | 1027.4 |
| 20260903090924 | 61 | 213 | 1.0 | 3.0 | 0.00 | 0.00 | 0.00 | 39 | 1027.4 |
| 20260903090003 | 62 | 213 | 1.0 | 3.0 | 0.00 | 0.00 | 0.00 | 38 | 1027.4 |
| 20260903085403 | 62 | 213 | 1.0 | 3.0 | 0.00 | 0.00 | 0.00 | 37 | 1027.4 |
| 20260903084524 | 63 | 213 | 0.0 | 3.0 | 0.00 | 0.00 | 0.00 | 35 | 1027.4 |
| 20260903083603 | 63 | 241 | 1.0 | 5.0 | 0.00 | 0.00 | 0.00 | 35 | 1027.4 |
| 20260903082724 | 63 | 250 | 1.0 | 4.0 | 0.00 | 0.00 | 0.00 | 35 | 1027.4 |
| 20260903081803 | 62 | 263 | 2.0 | 8.0 | 0.00 | 0.00 | 0.00 | 35 | 1027.4 |
| 20260903080903 | 62 | 311 | 1.0 | 4.0 | 0.00 | 0.00 | 0.00 | 37 | 1027.4 |
| 20260903080003 | 63 | 320 | 1.0 | 4.0 | 0.00 | 0.00 | 0.00 | 37 | 1027.4 |
| 20260903075403 | 64 | 316 | 1.0 | 3.0 | 0.00 | 0.00 | 0.00 | 36 | 1027.4 |
| 20260903074503 | 64 | 316 | 0.0 | 3.0 | 0.00 | 0.00 | 0.00 | 34 | 1027.4 |
| 20260903073603 | 65 | 316 | 0.0 | 3.0 | 0.00 | 0.00 | 0.00 | 33 | 1027.4 |
| 20260903072703 | 66 | 316 | 0.0 | 2.0 | 0.00 | 0.00 | 0.00 | 34 | 1027.4 |
| 20260903071803 | 66 | 316 | 0.0 | 2.0 | 0.00 | 0.00 | 0.00 | 32 | 1027.4 |
| 20260903070903 | 67 | 316 | 1.0 | 6.0 | 0.00 | 0.00 | 0.00 | 31 | 1027.4 |
| 20260903070003 | 66 | 315 | 2.0 | 6.0 | 0.00 | 0.00 | 0.00 | 30 | 1027.4 |
| 20260903065403 | 66 | 313 | 2.0 | 4.0 | 0.00 | 0.00 | 0.00 | 31 | 1027.4 |
| 20260903064503 | 66 | 309 | 0.0 | 4.0 | 0.00 | 0.00 | 0.00 | 35 | 1027.4 |
| 20260903063624 | 65 | 309 | 0.0 | 2.0 | 0.00 | 0.00 | 0.00 | 36 | 1027.4 |
| 20260903062703 | 66 | 0 | 0.0 | 0.0 | 0.00 | 0.00 | 0.00 | 39 | 1027.4 |
| 20260903061803 | 66 | 0 | 0.0 | 0.0 | 0.00 | 0.00 | 0.00 | 37 | 1027.4 |
| 20260903060903 | 66 | 0 | 0.0 | 0.0 | 0.00 | 0.00 | 0.00 | 38 | 1027.4 |
| 20260903060004 | 67 | 0 | 0.0 | 0.0 | 0.00 | 0.00 | 0.00 | 37 | 1027.4 |
| 20260903055403 | 67 | 0 | 0.0 | 0.0 | 0.00 | 0.00 | 0.00 | 35 | 1027.4 |
| 20260903054503 | 68 | 0 | 0.0 | 0.0 | 0.00 | 0.00 | 0.00 | 35 | 1027.4 |
| 20260903053603 | 68 | 0 | 0.0 | 0.0 | 0.00 | 0.00 | 0.00 | 32 | 1027.4 |
| 20260903052703 | 69 | 0 | 0.0 | 0.0 | 0.00 | 0.00 | 0.00 | 29 | 1027.4 |
| 20260903051803 | 70 | 0 | 0.0 | 0.0 | 0.00 | 0.00 | 0.00 | 27 | 1027.4 |
| 20260903050903 | 71 | 0 | 0.0 | 0.0 | 0.00 | 0.00 | 0.00 | 27 | 1027.4 |
| 20260903050003 | 72 | 309 | 0.0 | 1.0 | 0.00 | 0.00 | 0.00 | 23 | 1027.4 |
| 20260903045403 | 72 | 0 | 0.0 | 0.0 | 0.00 | 0.00 | 0.00 | 21 | 1027.4 |
| 20260903044503 | 72 | 321 | 2.0 | 11.0 | 0.00 | 0.00 | 0.00 | 22 | 1027.4 |
| 20260903043603 | 71 | 282 | 2.0 | 9.0 | 0.00 | 0.00 | 0.00 | 21 | 1027.4 |
| 20260903042703 | 71 | 298 | 1.0 | 4.0 | 0.00 | 0.00 | 0.00 | 24 | 1027.4 |
| 20260903041803 | 71 | 306 | 1.0 | 5.0 | 0.00 | 0.00 | 0.00 | 24 | 1027.4 |
| 20260903040924 | 72 | 313 | 1.0 | 6.0 | 0.00 | 0.00 | 0.00 | 25 | 1027.4 |
| 20260903040003 | 72 | 307 | 2.0 | 7.0 | 0.00 | 0.00 | 0.00 | 23 | 1027.4 |
| 20260903035403 | 72 | 302 | 2.0 | 6.0 | 0.00 | 0.00 | 0.00 | 23 | 1027.4 |
| 20260903034503 | 72 | 283 | 0.0 | 4.0 | 0.00 | 0.00 | 0.00 | 23 | 1027.4 |
| 20260903033603 | 72 | 282 | 1.0 | 3.0 | 0.00 | 0.00 | 0.00 | 23 | 1027.4 |
| 20260903032703 | 73 | 296 | 1.0 | 8.0 | 0.00 | 0.00 | 0.00 | 23 | 1027.4 |
| 20260903031803 | 73 | 304 | 0.0 | 3.0 | 0.00 | 0.00 | 0.00 | 23 | 1027.4 |
| 20260903030903 | 74 | 305 | 0.0 | 4.0 | 0.00 | 0.00 | 0.00 | 23 | 1027.4 |
| 20260903030003 | 74 | 305 | 0.0 | 3.0 | 0.00 | 0.00 | 0.00 | 23 | 1027.4 |
| 20260903025403 | 75 | 297 | 1.0 | 4.0 | 0.00 | 0.00 | 0.00 | 22 | 1027.4 |
| 20260903024503 | 75 | 159 | 0.0 | 1.0 | 0.00 | 0.00 | 0.00 | 19 | 1027.4 |
| 20260903023624 | 76 | 159 | 0.0 | 4.0 | 0.00 | 0.00 | 0.00 | 18 | 1027.4 |
| 20260903022724 | 76 | 0 | 0.0 | 0.0 | 0.00 | 0.00 | 0.00 | 18 | 1027.4 |
| 20260903021803 | 77 | 181 | 0.0 | 2.0 | 0.00 | 0.00 | 0.00 | 17 | 1027.4 |
| 20260903020903 | 77 | 209 | 0.0 | 3.0 | 0.00 | 0.00 | 0.00 | 17 | 1027.4 |
| 20260903020003 | 78 | 214 | 0.0 | 3.0 | 0.00 | 0.00 | 0.00 | 17 | 1027.4 |
| 20260903015424 | 78 | 217 | 0.0 | 3.0 | 0.00 | 0.00 | 0.00 | 17 | 1027.4 |
| 20260903014524 | 79 | 209 | 0.0 | 5.0 | 0.00 | 0.00 | 0.00 | 17 | 1027.4 |
| 20260903013624 | 79 | 206 | 0.0 | 5.0 | 0.00 | 0.00 | 0.00 | 17 | 1027.4 |
| 20260903012703 | 80 | 204 | 1.0 | 4.0 | 0.00 | 0.00 | 0.00 | 16 | 1027.4 |
| 20260903011803 | 80 | 192 | 2.0 | 8.0 | 0.00 | 0.00 | 0.00 | 15 | 1027.4 |
| 20260903010903 | 81 | 206 | 2.0 | 8.0 | 0.00 | 0.00 | 0.00 | 14 | 1027.4 |
| 20260903010024 | 81 | 200 | 2.0 | 7.0 | 0.00 | 0.00 | 0.00 | 15 | 1027.4 |
| 20260903005424 | 81 | 196 | 2.0 | 7.0 | 0.00 | 0.00 | 0.00 | 14 | 1027.4 |
| 20260903004503 | 81 | 196 | 4.0 | 9.0 | 0.00 | 0.00 | 0.00 | 15 | 1027.4 |
| 20260903003603 | 81 | 198 | 4.0 | 15.0 | 0.00 | 0.00 | 0.00 | 14 | 1027.4 |
| 20260903002724 | 82 | 191 | 3.0 | 15.0 | 0.00 | 0.00 | 0.00 | 15 | 1027.4 |
| 20260903001803 | 82 | 181 | 4.0 | 18.0 | 0.00 | 0.00 | 0.00 | 16 | 1027.4 |
| 20260903000903 | 82 | 179 | 3.0 | 10.0 | 0.00 | 0.00 | 0.00 | 14 | 1027.4 |
| 20260903000003 | 82 | 167 | 2.0 | 13.0 | 0.00 | 0.00 | 0.00 | 16 | 1027.4 |
| 20260902235403 | 82 | 176 | 1.0 | 6.0 | 0.00 | 0.00 | 0.00 | 20 | 1027.4 |
| 20260902234503 | 82 | 188 | 3.0 | 12.0 | 0.00 | 0.00 | 0.00 | 16 | 1027.4 |
| 20260902233603 | 83 | 175 | 2.0 | 11.0 | 0.00 | 0.00 | 0.00 | 17 | 1027.4 |
| 20260902232703 | 83 | 175 | 2.0 | 8.0 | 0.00 | 0.00 | 0.00 | 17 | 1027.4 |
| 20260902231803 | 83 | 194 | 4.0 | 12.0 | 0.00 | 0.00 | 0.00 | 17 | 1027.4 |
| 20260902230903 | 83 | 182 | 3.0 | 14.0 | 0.00 | 0.00 | 0.00 | 17 | 1027.4 |
| 20260902230003 | 84 | 192 | 4.0 | 16.0 | 0.00 | 0.00 | 0.00 | 16 | 1027.4 |
| 20260902225403 | 84 | 189 | 2.0 | 12.0 | 0.00 | 0.00 | 0.00 | 17 | 1027.4 |
| 20260902224503 | 84 | 181 | 3.0 | 11.0 | 0.00 | 0.00 | 0.00 | 16 | 1027.4 |
| 20260902223603 | 85 | 192 | 4.0 | 14.0 | 0.00 | 0.00 | 0.00 | 16 | 1027.4 |
| 20260902222724 | 84 | 185 | 4.0 | 14.0 | 0.00 | 0.00 | 0.00 | 18 | 1027.4 |
| 20260902221824 | 84 | 181 | 3.0 | 17.0 | 0.00 | 0.00 | 0.00 | 18 | 1027.4 |
| 20260902220903 | 83 | 173 | 2.0 | 13.0 | 0.00 | 0.00 | 0.00 | 22 | 1027.4 |
| 20260902220003 | 83 | 186 | 3.0 | 10.0 | 0.00 | 0.00 | 0.00 | 20 | 1027.4 |
| 20260902215403 | 83 | 174 | 3.0 | 10.0 | 0.00 | 0.00 | 0.00 | 20 | 1027.4 |
| 20260902214503 | 84 | 181 | 3.0 | 10.0 | 0.00 | 0.00 | 0.00 | 21 | 1027.4 |
| 20260902213603 | 85 | 172 | 2.0 | 7.0 | 0.00 | 0.00 | 0.00 | 22 | 1027.4 |
| 20260902212724 | 86 | 174 | 3.0 | 10.0 | 0.00 | 0.00 | 0.00 | 19 | 1027.4 |
| 20260902211803 | 86 | 186 | 4.0 | 15.0 | 0.00 | 0.00 | 0.00 | 21 | 1027.4 |
| 20260902210903 | 86 | 167 | 2.0 | 10.0 | 0.00 | 0.00 | 0.00 | 22 | 1027.4 |
| 20260902210003 | 85 | 189 | 5.0 | 15.0 | 0.00 | 0.00 | 0.00 | 20 | 1027.4 |